Weather History for KPPA - September, 2012

Change the Weather History Date:

Friday, September 14, 2012

  Actual Average Record
Temperature  
Mean Temperature 56 °F -  
Max Temperature 66 °F 81 °F 98 °F (1965)
Min Temperature 46 °F 57 °F 39 °F (1989)
Degree Days  
Heating Degree Days 9    
Growing Degree Days 6 (Base 50)    
Moisture  
Dew Point 43 °F    
Average Humidity 67    
Maximum Humidity 87    
Minimum Humidity 37    
Precipitation  
Precipitation 0.00 in - - ()
Sea Level Pressure  
Sea Level Pressure 30.37 in    
Wind  
Wind Speed 12 mph (NNE)    
Max Wind Speed 17 mph    
Max Gust Speed 23 mph    
Visibility 10 miles    
Events      
Averages and records for this station are not official NWS values.
T = Trace of Precipitation, MM = Missing Value Source: NWS Daily Summary

Daily Weather History Graph

Daily Weather History Graph

Search for Another Location

Airport or City:

Trip Planner

Search our weather history database for the weather conditions in past years. The results will help you decide how hot, cold, wet, or windy it might be!

Date:

Astronomy

Sep. 14, 2012 Rise Set
Actual Time 7:26 AM CDT 7:51 PM CDT
Civil Twilight 7:00 AM CDT 8:17 PM CDT
Nautical Twilight 6:30 AM CDT 8:47 PM CDT
Astronomical Twilight 6:00 AM CDT 9:17 PM CDT
Moon 5:54 AM CDT (9/14) 6:49 PM CDT (9/14)
Length of Visible Light 13h 16m
Length of Day
12h 25m
Waning Crescent, 2% of the Moon is Illuminated
Sep 14
Waning Crescent
Sep 15
New
Sep 22
First Quarter
Sep 29
Full
Oct 8
Last Quarter

Hourly Weather History & Observations

Time (CDT) Temp. Windchill Dew Point Humidity Pressure Visibility Wind Dir Wind Speed Gust Speed Precip Events Conditions
12:15 AM 51.8 °F - 46.4 °F 82% 30.43 in 10.0 mi NNE 17.3 mph - N/A   Scattered Clouds
12:35 AM 50.0 °F - 46.4 °F 87% 30.43 in 10.0 mi NNE 11.5 mph - N/A   Overcast
12:55 AM 50.0 °F - 44.6 °F 82% 30.42 in 10.0 mi North 11.5 mph - N/A   Mostly Cloudy
1:15 AM 50.0 °F - 44.6 °F 82% 30.41 in 10.0 mi North 11.5 mph - N/A   Mostly Cloudy
1:35 AM 50.0 °F - 44.6 °F 82% 30.41 in 10.0 mi North 10.4 mph - N/A   Overcast
1:55 AM 50.0 °F - 44.6 °F 82% 30.41 in 10.0 mi North 12.7 mph - N/A   Overcast
2:15 AM 50.0 °F - 44.6 °F 82% 30.40 in 10.0 mi North 15.0 mph 18.4 mph N/A   Overcast
2:35 AM 48.2 °F - 42.8 °F 82% 30.40 in 10.0 mi North 11.5 mph 18.4 mph N/A   Overcast
2:55 AM 48.2 °F - 42.8 °F 82% 30.40 in 10.0 mi NNE 10.4 mph 17.3 mph N/A   Overcast
3:15 AM 48.2 °F - 42.8 °F 82% 30.39 in 10.0 mi NNE 13.8 mph - N/A   Overcast
3:35 AM 48.2 °F - 42.8 °F 82% 30.39 in 10.0 mi North 10.4 mph - N/A   Overcast
3:55 AM 48.2 °F - 42.8 °F 82% 30.38 in 10.0 mi North 12.7 mph - N/A   Overcast
4:15 AM 48.2 °F - 42.8 °F 82% 30.38 in 10.0 mi North 11.5 mph - N/A   Overcast
4:35 AM 46.4 °F 41.5 °F 42.8 °F 87% 30.39 in 10.0 mi North 10.4 mph - N/A   Overcast
4:55 AM 46.4 °F 41.9 °F 42.8 °F 87% 30.38 in 10.0 mi North 9.2 mph - N/A   Overcast
5:15 AM 46.4 °F 41.9 °F 42.8 °F 87% 30.39 in 10.0 mi North 9.2 mph - N/A   Overcast
5:35 AM 46.4 °F 41.5 °F 42.8 °F 87% 30.39 in 10.0 mi North 10.4 mph - N/A   Overcast
5:55 AM 46.4 °F 40.7 °F 42.8 °F 87% 30.39 in 10.0 mi North 12.7 mph - N/A   Overcast
6:15 AM 46.4 °F 41.1 °F 42.8 °F 87% 30.38 in 10.0 mi North 11.5 mph - N/A   Overcast
6:35 AM 46.4 °F 41.1 °F 42.8 °F 87% 30.39 in 10.0 mi North 11.5 mph - N/A   Overcast
6:55 AM 46.4 °F 41.5 °F 42.8 °F 87% 30.39 in 10.0 mi North 10.4 mph - N/A   Overcast
7:15 AM 46.4 °F 41.9 °F 42.8 °F 87% 30.39 in 10.0 mi North 9.2 mph - N/A   Overcast
7:55 AM 46.4 °F 41.1 °F 41.0 °F 81% 30.40 in 10.0 mi North 11.5 mph - N/A   Overcast
8:15 AM 46.4 °F 41.5 °F 41.0 °F 81% 30.40 in 10.0 mi North 10.4 mph - N/A   Overcast
8:35 AM 46.4 °F 41.1 °F 41.0 °F 81% 30.40 in 10.0 mi North 11.5 mph - N/A   Overcast
8:55 AM 48.2 °F - 41.0 °F 76% 30.40 in 10.0 mi North 10.4 mph - N/A   Overcast
9:15 AM 50.0 °F - 41.0 °F 71% 30.40 in 10.0 mi North 13.8 mph - N/A   Overcast
9:35 AM 50.0 °F - 41.0 °F 71% 30.40 in 10.0 mi North 12.7 mph - N/A   Overcast
9:55 AM 50.0 °F - 41.0 °F 71% 30.40 in 10.0 mi North 11.5 mph 17.3 mph N/A   Overcast
10:15 AM 51.8 °F - 41.0 °F 67% 30.40 in 10.0 mi North 15.0 mph 19.6 mph N/A   Overcast
10:35 AM 51.8 °F - 41.0 °F 67% 30.40 in 10.0 mi North 13.8 mph 17.3 mph N/A   Overcast
10:55 AM 53.6 °F - 41.0 °F 62% 30.40 in 10.0 mi North 12.7 mph - N/A   Overcast
11:15 AM 53.6 °F - 41.0 °F 62% 30.41 in 10.0 mi North 11.5 mph - N/A   Overcast
11:55 AM 55.4 °F - 41.0 °F 58% 30.41 in 10.0 mi North 12.7 mph 20.7 mph N/A   Overcast
12:15 PM 55.4 °F - 42.8 °F 63% 30.41 in 10.0 mi NNE 12.7 mph - N/A   Overcast
12:35 PM 59.0 °F - 41.0 °F 51% 30.40 in 10.0 mi North 13.8 mph - N/A   Mostly Cloudy
12:55 PM 60.8 °F - 41.0 °F 48% 30.40 in 10.0 mi NNE 12.7 mph 23.0 mph N/A   Overcast
1:15 PM 60.8 °F - 37.4 °F 42% 30.39 in 10.0 mi NNE 16.1 mph 21.9 mph N/A   Overcast
1:55 PM 62.6 °F - 37.4 °F 39% 30.38 in 10.0 mi NE 15.0 mph 20.7 mph N/A   Overcast
2:15 PM 62.6 °F - 37.4 °F 39% 30.38 in 10.0 mi NNE 15.0 mph 19.6 mph N/A   Overcast
2:35 PM 62.6 °F - 37.4 °F 39% 30.36 in 10.0 mi NNE 16.1 mph 21.9 mph N/A   Overcast
3:35 PM 64.4 °F - 42.8 °F 45% 30.34 in 10.0 mi NE 13.8 mph 19.6 mph N/A   Overcast
3:55 PM 64.4 °F - 42.8 °F 45% 30.34 in 10.0 mi NNE 10.4 mph - N/A   Overcast
4:15 PM 64.4 °F - 44.6 °F 49% 30.33 in 10.0 mi NE 12.7 mph 17.3 mph N/A   Overcast
4:35 PM 64.4 °F - 44.6 °F 49% 30.33 in 10.0 mi ENE 16.1 mph - N/A   Overcast
4:55 PM 66.2 °F - 46.4 °F 49% 30.32 in 10.0 mi NE 15.0 mph - N/A   Overcast
5:15 PM 64.4 °F - 42.8 °F 45% 30.32 in 10.0 mi NE 12.7 mph 19.6 mph N/A   Overcast
5:35 PM 64.4 °F - 41.0 °F 42% 30.32 in 10.0 mi NE 13.8 mph - N/A   Overcast
5:55 PM 64.4 °F - 41.0 °F 42% 30.32 in 10.0 mi ENE 12.7 mph 17.3 mph N/A   Overcast
6:15 PM 64.4 °F - 39.2 °F 40% 30.32 in 10.0 mi ENE 13.8 mph - N/A   Overcast
6:55 PM 64.4 °F - 37.4 °F 37% 30.32 in 10.0 mi NE 11.5 mph - N/A   Overcast
7:15 PM 62.6 °F - 42.8 °F 48% 30.32 in 10.0 mi East 9.2 mph - N/A   Overcast
7:35 PM 60.8 °F - 44.6 °F 55% 30.32 in 10.0 mi East 9.2 mph - N/A   Overcast
7:55 PM 60.8 °F - 44.6 °F 55% 30.32 in 10.0 mi East 8.1 mph - N/A   Overcast
8:15 PM 59.0 °F - 46.4 °F 63% 30.32 in 10.0 mi East 8.1 mph - N/A   Overcast
8:35 PM 59.0 °F - 46.4 °F 63% 30.32 in 10.0 mi East 5.8 mph - N/A   Overcast
8:55 PM 59.0 °F - 46.4 °F 63% 30.33 in 10.0 mi East 6.9 mph - N/A   Overcast
9:15 PM 59.0 °F - 46.4 °F 63% 30.33 in 10.0 mi East 8.1 mph - N/A   Overcast
9:35 PM 59.0 °F - 48.2 °F 67% 30.33 in 10.0 mi ESE 8.1 mph - N/A   Overcast
10:15 PM 57.2 °F - 46.4 °F 67% 30.34 in 10.0 mi ESE 4.6 mph - N/A   Overcast
10:35 PM 55.4 °F - 46.4 °F 72% 30.34 in 10.0 mi ESE 5.8 mph - N/A   Overcast
10:55 PM 55.4 °F - 46.4 °F 72% 30.34 in 10.0 mi ESE 3.5 mph - N/A   Mostly Cloudy
11:15 PM 55.4 °F - 48.2 °F 77% 30.34 in 10.0 mi ESE 3.5 mph - N/A   Overcast
11:35 PM 55.4 °F - 48.2 °F 77% 30.34 in 10.0 mi SE 4.6 mph - N/A   Overcast
11:55 PM 55.4 °F - 48.2 °F 77% 30.34 in 10.0 mi SE 4.6 mph - N/A   Overcast